Location: *
(40.7873°S, 98.7174°E)
Time: 10:45:29
(UTC+00:00)

Cosmos 2233 Rocket - Pass Details

Date: 24 May 2022
Orbit: 952 x 991 km, 82.9° (Epoch: 04 July)

Event Time Altitude Azimuth Distance (km) Brightness Sun altitude
Rises 11:44:12 0° 180° (S) 3,694 6.9 -17.5°
Reaches altitude 10° 11:46:55 10° 172° (S) 2,746 6.2 -18.0°
Maximum altitude 11:52:45 38° 104° (ESE) 1,458 4.4 -19.1°
Drops below altitude 10° 11:58:34 10° 37° (NE) 2,741 6.1 -20.2°
Sets 12:01:16 0° 29° (NNE) 3,686 6.8 -20.7°
